QPF
0.00 0.00 0.00 0.00 0.00 0.00 0.00 0.00 0.00 0.00 0.00 0.00 0.00 0.00 0.00 0.00 0.00 0.00 0.00 0.00 0.00 0.00 0.00 0.00 0.00 0.00 0.00 0.00 0.00 0.00 0.00 0.00 0.00 0.00 0.00 0.00 0.00 0.00 0.00 0.00 0.00 0.00 0.00 0.00 0.00 0.01 0.01
0.00 0.00 0.00 0.00 0.00 0.00 0.00 0.00 0.00 0.00 0.00 0.00 0.00 0.00 0.00 0.00 0.00 0.00 0.00 0.00 0.00 0.00 0.00 0.00 0.00 0.00 0.00 0.00 0.00 0.00 0.00 0.00 0.00 0.00 0.00 0.00 0.00 0.00 0.00 0.00 0.00 0.00 0.00 0.00 0.00 0.00 0.00
0.00 0.00 0.00 0.00 0.00 0.00 0.00 0.00 0.00 0.00 0.00 0.00 0.00 0.00 0.00 0.00 0.00 0.00 0.00 0.00 0.00 0.00 0.00 0.00 0.00 0.00 0.00 0.00 0.00 0.00 0.00 0.01 0.00 0.00 0.00 0.00 0.00 0.00 0.00 0.00 0.00 0.00 0.00 0.00 0.00 0.00 0.00
0.00 0.00 0.00 0.00 0.00 0.00 0.00 0.00 0.00 0.00 0.00 0.00 0.00 0.00 0.00 0.00 0.00 0.00 0.00 0.00 0.00 0.00 0.00 0.00 0.00 0.00 0.00 0.00 0.00 0.00 0.00 0.00 0.00 0.00 0.00 0.00 0.00 0.00 0.00 0.00 0.00 0.00 0.00 0.00 0.00 0.00 0.00
0.00 0.00 0.00 0.00 0.00 0.00 0.00 0.00 0.00 0.00 0.00 0.00 0.00 0.00 0.00 0.00 0.00 0.00 0.00 0.00 0.00 0.00 0.00 0.00 0.00 0.00 0.00 0.00 0.00 0.00 0.00 0.00 0.00 0.00 0.00 0.00 0.00 0.00 0.00 0.00 0.00 0.00 0.00 0.00 0.00 0.00 0.00
0.00 0.00 0.00 0.00 0.00 0.00 0.00 0.00 0.00 0.00 0.00 0.00 0.00 0.00 0.00 0.00 0.00 0.00 0.00 0.00 0.00 0.00 0.00 0.00 0.00 0.00 0.00 0.00 0.00 0.00 0.00 0.00 0.00 0.02 0.01 0.00 0.00 0.00 0.00 0.00 0.00 0.00 0.00 0.00 0.00 0.00 0.00
0.00 0.00 0.00 0.00 0.00 0.00 0.00 0.00 0.00 0.00 0.00 0.00 0.00 0.00 0.00 0.00 0.00 0.00 0.00 0.00 0.00 0.00 0.00 0.00 0.00 0.00 0.00 0.00 0.00 0.00 0.00 0.00 0.00 0.00 0.00 0.00 0.00 0.00 0.00 0.00 0.00 0.00 0.00 0.00 0.00 0.00 0.00
0.00 0.00 0.00 0.00 0.00 0.00 0.00 0.00 0.00 0.00 0.00 0.00 0.00 0.00 0.00 0.00 0.00 0.00 0.00 0.00 0.00 0.00 0.00 0.00 0.00 0.00 0.00 0.00 0.00 0.00 0.00 0.00 0.00 0.00 0.00 0.00 0.00 0.00 0.00 0.00 0.00 0.00 0.00 0.00 0.00 0.00 0.00
0.00 0.00 0.00 0.00 0.00 0.00 0.00 0.00 0.00 0.00 0.00 0.00 0.00 0.00 0.00 0.00 0.00 0.00 0.00 0.00 0.00 0.00 0.00 0.00 0.00 0.00 0.00 0.00 0.00 0.00 0.00 0.00 0.00 0.00 0.00 0.00 0.00 0.00 0.00 0.00 0.00 0.00 0.00 0.00 0.00 0.00 0.00
0.00 0.00 0.00 0.00 0.00 0.00 0.00 0.00 0.00 0.00 0.00 0.00 0.00 0.00 0.00 0.00 0.00 0.00 0.00 0.00 0.00 0.00 0.00 0.00 0.00 0.00 0.00 0.00 0.00 0.00 0.00 0.00 0.00 0.00 0.00 0.00 0.00 0.00 0.00 0.00 0.00 0.00 0.00 0.00 0.00 0.00 0.00
0.00 0.00 0.00 0.00 0.00 0.00 0.00 0.00 0.00 0.00 0.00 0.00 0.00 0.00 0.00 0.00 0.00 0.00 0.00 0.00 0.00 0.00 0.00 0.00 0.00 0.00 0.00 0.00 0.00 0.00 0.00 0.00 0.00 0.00 0.00 0.00 0.00 0.00 0.00 0.00 0.00 0.00 0.00 0.00 0.00 0.00 0.00
0.00 0.00 0.00 0.00 0.00 0.00 0.00 0.00 0.00 0.00 0.00 0.00 0.00 0.00 0.00 0.00 0.00 0.00 0.00 0.00 0.00 0.00 0.00 0.00 0.00 0.00 0.00 0.00 0.00 0.00 0.00 0.00 0.00 0.00 0.00 0.00 0.00 0.00 0.00 0.00 0.00 0.00 0.00 0.00 0.00 0.00 0.00
0.00 0.00 0.00 0.00 0.00 0.00 0.00 0.00 0.00 0.00 0.00 0.00 0.00 0.00 0.00 0.00 0.00 0.00 0.00 0.00 0.00 0.00 0.00 0.00 0.00 0.00 0.00 0.00 0.00 0.00 0.00 0.00 0.00 0.00 0.00 0.00 0.00 0.00 0.00 0.00 0.00 0.00 0.00 0.00 0.00 0.00 0.00
0.00 0.00 0.00 0.00 0.00 0.00 0.00 0.00 0.00 0.00 0.00 0.00 0.00 0.00 0.00 0.00 0.00 0.00 0.00 0.00 0.00 0.00 0.00 0.00 0.00 0.00 0.00 0.00 0.00 0.00 0.00 0.00 0.00 0.00 0.00 0.00 0.00 0.00 0.00 0.00 0.00 0.00 0.00 0.00 0.00 0.00 0.00
0.00 0.00 0.00 0.00 0.00 0.00 0.00 0.00 0.00 0.00 0.00 0.00 0.00 0.00 0.00 0.00 0.00 0.00 0.00 0.00 0.00 0.00 0.00 0.00 0.00 0.00 0.00 0.00 0.00 0.00 0.00 0.00 0.00 0.00 0.00 0.00 0.00 0.00 0.00 0.00 0.00 0.00 0.00 0.00 0.00 0.00 0.00
0.00 0.00 0.00 0.00 0.00 0.00 0.00 0.00 0.00 0.00 0.00 0.00 0.00 0.00 0.00 0.00 0.00 0.00 0.00 0.00 0.00 0.00 0.00 0.00 0.00 0.00 0.00 0.00 0.00 0.00 0.00 0.00 0.00 0.00 0.00 0.00 0.00 0.00 0.00 0.00 0.00 0.00 0.00 0.00 0.00 0.00 0.00
0.00 0.00 0.00 0.00 0.00 0.00 0.00 0.00 0.00 0.00 0.00 0.00 0.00 0.00 0.00 0.00 0.00 0.00 0.00 0.00 0.00 0.00 0.00 0.00 0.00 0.00 0.00 0.00 0.00 0.00 0.00 0.00 0.00 0.00 0.00 0.00 0.00 0.00 0.00 0.00 0.00 0.00 0.00 0.00 0.00 0.00 0.00
0.00 0.00 0.00 0.00 0.00 0.00 0.00 0.00 0.00 0.00 0.00 0.00 0.00 0.00 0.00 0.00 0.00 0.00 0.00 0.00 0.00 0.00 0.00 0.00 0.00 0.00 0.00 0.00 0.00 0.00 0.00 0.00 0.00 0.00 0.00 0.00 0.00 0.00 0.00 0.00 0.00 0.00 0.00 0.00 0.00 0.00 0.00
0.00 0.00 0.00 0.00 0.00 0.00 0.00 0.00 0.00 0.00 0.00 0.00 0.00 0.00 0.00 0.00 0.00 0.00 0.00 0.00 0.00 0.00 0.00 0.00 0.00 0.00 0.00 0.00 0.00 0.00 0.00 0.00 0.00 0.00 0.00 0.00 0.00 0.00 0.00 0.00 0.00 0.00 0.00 0.00 0.00 0.00 0.00
0.00 0.00 0.00 0.00 0.00 0.00 0.00 0.00 0.00 0.00 0.00 0.00 0.00 0.00 0.00 0.00 0.00 0.00 0.00 0.00 0.00 0.00 0.00 0.00 0.00 0.00 0.00 0.00 0.00 0.00 0.00 0.00 0.00 0.00 0.00 0.00 0.00 0.00 0.00 0.00 0.00 0.00 0.00 0.00 0.00 0.00 0.00
0.00 0.00 0.00 0.00 0.00 0.00 0.00 0.00 0.00 0.00 0.00 0.00 0.00 0.00 0.00 0.00 0.00 0.00 0.00 0.00 0.00 0.00 0.00 0.00 0.00 0.00 0.00 0.00 0.00 0.00 0.00 0.00 0.00 0.00 0.00 0.00 0.00 0.00 0.00 0.00 0.00 0.00 0.00 0.00 0.00 0.00 0.00
0.00 0.00 0.00 0.00 0.00 0.00 0.00 0.00 0.00 0.00 0.00 0.00 0.00 0.00 0.00 0.00 0.00 0.00 0.00 0.00 0.00 0.00 0.00 0.00 0.00 0.00 0.00 0.00 0.00 0.00 0.00 0.00 0.00 0.00 0.00 0.00 0.00 0.00 0.00 0.00 0.00 0.00 0.00 0.00 0.00 0.00 0.00
0.00 0.00 0.00 0.00 0.00 0.00 0.00 0.00 0.00 0.00 0.00 0.00 0.00 0.00 0.00 0.00 0.00 0.00 0.00 0.00 0.00 0.00 0.00 0.00 0.00 0.00 0.00 0.00 0.00 0.00 0.00 0.00 0.00 0.00 0.00 0.00 0.00 0.00 0.00 0.00 0.00 0.00 0.00 0.00 0.00 0.00 0.00
0.00 0.00 0.00 0.00 0.00 0.00 0.00 0.00 0.00 0.00 0.00 0.00 0.00 0.00 0.00 0.00 0.00 0.00 0.00 0.00 0.00 0.00 0.00 0.00 0.00 0.00 0.00 0.00 0.00 0.00 0.00 0.00 0.00 0.00 0.00 0.00 0.00 0.00 0.00 0.00 0.00 0.00 0.00 0.00 0.00 0.00 0.00
0.00 0.00 0.00 0.00 0.00 0.00 0.00 0.00 0.00 0.00 0.00 0.00 0.00 0.00 0.00 0.00 0.00 0.00 0.00 0.00 0.00 0.00 0.00 0.00 0.00 0.00 0.00 0.00 0.00 0.00 0.00 0.00 0.00 0.00 0.00 0.00 0.00 0.00 0.00 0.00 0.00 0.00 0.00 0.00 0.00 0.00 0.00
0.00 0.00 0.00 0.00 0.00 0.00 0.00 0.00 0.00 0.00 0.00 0.00 0.00 0.00 0.00 0.00 0.00 0.00 0.00 0.00 0.00 0.00 0.00 0.00 0.00 0.00 0.00 0.00 0.00 0.00 0.00 0.00 0.00 0.00 0.00 0.00 0.00 0.00 0.00 0.00 0.00 0.00 0.00 0.00 0.00 0.00 0.00
0.00 0.00 0.00 0.00 0.00 0.00 0.00 0.00 0.00 0.00 0.00 0.00 0.00 0.00 0.00 0.00 0.00 0.00 0.00 0.00 0.00 0.00 0.00 0.00 0.00 0.00 0.00 0.00 0.00 0.00 0.00 0.00 0.00 0.00 0.00 0.00 0.00 0.00 0.00 0.00 0.00 0.00 0.00 0.00 0.00 0.00 0.00
0.00 0.00 0.00 0.00 0.00 0.00 0.00 0.00 0.00 0.00 0.00 0.00 0.00 0.00 0.00 0.00 0.00 0.00 0.00 0.00 0.00 0.00 0.00 0.00 0.00 0.00 0.00 0.00 0.00 0.00 0.00 0.00 0.00 0.00 0.00 0.00 0.00 0.00 0.00 0.00 0.00 0.00 0.00 0.00 0.00 0.00 0.00
0.00 0.00 0.00 0.00 0.00 0.00 0.00 0.00 0.00 0.00 0.01 0.00 0.00 0.00 0.00 0.00 0.00 0.00 0.00 0.00 0.00 0.00 0.00 0.00 0.00 0.00 0.00 0.00 0.00 0.00 0.00 0.00 0.00 0.00 0.00 0.00 0.00 0.00 0.00 0.00 0.00 0.00 0.00 0.00 0.00 0.00 0.00
MSLP
1023.25 1023.05 1023.08 1022.99 1022.79 1022.51 1022.22 1021.96 1021.62 1021.43 1021.25 1021.09 1021.00 1020.84 1020.73 1020.62 1020.38 1020.09 1019.80 1019.36 1019.05 1018.79 1018.53 1018.16 1017.73 1017.35 1017.05 1016.88 1016.32 1015.62 1015.35 1015.09 1015.12 1015.18 1015.30 1015.34 1015.35 1015.28 1015.22 1014.97 1014.55 1014.20 1013.53 1012.97 1012.41 1012.15 1012.38
1023.54 1023.30 1023.12 1022.93 1022.77 1022.42 1022.08 1021.73 1021.48 1021.25 1021.12 1020.96 1020.91 1020.75 1020.61 1020.48 1020.30 1020.08 1019.78 1019.31 1019.01 1018.75 1018.45 1018.18 1017.89 1017.42 1017.28 1016.85 1015.89 1015.66 1015.45 1015.29 1015.25 1015.33 1015.37 1015.48 1015.51 1015.32 1015.40 1014.98 1014.61 1014.06 1013.56 1013.29 1012.94 1012.60 1012.55
1023.60 1023.44 1023.23 1022.98 1022.81 1022.45 1022.03 1021.72 1021.52 1021.29 1021.07 1020.88 1020.80 1020.69 1020.49 1020.25 1020.09 1019.88 1019.67 1019.33 1018.99 1018.70 1018.45 1018.20 1018.02 1017.88 1017.46 1016.77 1016.00 1015.78 1015.50 1015.36 1015.26 1015.37 1015.40 1015.33 1015.30 1015.37 1015.34 1014.96 1014.41 1014.07 1013.97 1013.68 1013.33 1013.02 1012.88
1023.63 1023.46 1023.23 1022.98 1022.74 1022.44 1022.11 1021.80 1021.54 1021.32 1021.15 1020.89 1020.69 1020.53 1020.34 1020.08 1019.83 1019.66 1019.49 1019.25 1018.91 1018.63 1018.44 1018.27 1018.07 1018.08 1017.25 1016.03 1015.84 1015.71 1015.49 1015.40 1015.27 1015.27 1015.32 1015.12 1015.05 1015.18 1015.36 1014.89 1014.42 1014.26 1014.30 1014.23 1013.45 1013.25 1012.80
1023.52 1023.45 1023.30 1023.03 1022.81 1022.43 1022.13 1021.85 1021.53 1021.41 1021.20 1020.98 1020.72 1020.45 1020.26 1020.02 1019.69 1019.49 1019.28 1019.08 1018.76 1018.47 1018.27 1018.20 1018.20 1018.01 1017.11 1015.96 1015.90 1015.75 1015.65 1015.68 1015.45 1015.34 1015.24 1015.12 1015.08 1015.40 1015.43 1015.48 1015.27 1014.99 1014.85 1014.49 1013.91 1013.29 1012.98
1023.57 1023.40 1023.24 1023.12 1022.80 1022.45 1021.97 1021.78 1021.52 1021.24 1021.14 1021.01 1020.78 1020.51 1020.33 1020.04 1019.69 1019.33 1018.92 1018.60 1018.44 1018.29 1017.93 1018.05 1018.00 1018.23 1016.92 1016.60 1016.17 1015.94 1015.62 1015.58 1015.65 1015.67 1015.60 1015.48 1015.79 1016.07 1016.27 1016.18 1016.15 1015.70 1015.11 1014.65 1014.09 1013.66 1013.44
1023.59 1023.42 1023.17 1023.15 1022.86 1022.50 1022.08 1021.81 1021.53 1021.15 1021.08 1020.92 1020.64 1020.43 1020.28 1020.00 1019.69 1019.33 1018.99 1018.55 1019.00 1018.78 1018.44 1018.48 1018.06 1017.70 1017.08 1016.50 1016.18 1015.94 1015.72 1015.76 1015.84 1016.09 1016.24 1016.08 1016.52 1016.57 1016.39 1016.30 1016.15 1015.89 1015.30 1014.99 1014.26 1013.52 1013.52
1023.59 1023.52 1023.18 1022.89 1022.91 1022.54 1022.21 1021.77 1021.47 1021.13 1021.02 1020.92 1020.67 1020.41 1020.25 1020.03 1019.68 1019.45 1019.46 1019.75 1020.06 1020.10 1019.31 1018.15 1017.71 1017.27 1016.80 1016.58 1016.41 1015.99 1015.86 1016.22 1016.32 1016.59 1016.41 1016.63 1016.66 1016.33 1016.08 1015.83 1015.85 1015.68 1015.46 1014.83 1014.13 1013.56 1013.88
1023.56 1023.47 1023.29 1022.90 1022.84 1022.46 1022.26 1021.83 1021.50 1021.12 1020.90 1020.77 1020.65 1020.40 1020.13 1020.02 1019.71 1019.65 1019.76 1020.06 1019.88 1019.90 1019.83 1018.34 1017.39 1016.91 1016.59 1016.62 1016.50 1016.20 1016.18 1016.33 1016.52 1016.63 1016.63 1016.67 1016.19 1015.69 1015.69 1015.71 1015.54 1015.39 1015.34 1014.92 1014.52 1014.08 1014.00
1023.46 1023.47 1023.30 1023.01 1022.86 1022.34 1022.18 1021.88 1021.48 1021.17 1020.94 1020.77 1020.53 1020.34 1020.10 1019.87 1020.06 1020.14 1020.20 1020.00 1019.88 1019.95 1020.00 1018.63 1017.30 1016.64 1016.49 1016.43 1016.62 1016.26 1016.21 1016.63 1016.76 1016.92 1016.76 1016.72 1016.18 1015.89 1015.69 1015.64 1015.56 1015.39 1015.13 1014.91 1014.73 1014.96 1015.03
1023.56 1023.42 1023.22 1023.03 1022.83 1022.43 1022.16 1021.92 1021.48 1021.09 1020.68 1020.48 1020.50 1020.32 1020.11 1019.71 1020.29 1020.36 1020.36 1019.96 1019.78 1020.02 1020.30 1018.51 1017.18 1016.35 1016.42 1016.86 1016.71 1016.42 1016.38 1016.53 1016.97 1017.16 1017.48 1017.02 1016.52 1016.22 1015.88 1015.64 1015.52 1015.52 1015.32 1015.20 1015.18 1015.65 1015.74
1023.42 1023.40 1023.22 1023.04 1022.80 1022.46 1022.10 1021.84 1021.48 1021.10 1020.75 1020.47 1020.36 1020.24 1020.15 1020.26 1020.34 1020.21 1020.01 1019.83 1020.13 1020.50 1020.36 1018.73 1017.40 1016.99 1017.01 1016.84 1016.83 1016.54 1016.67 1016.83 1016.93 1017.24 1017.24 1017.06 1016.60 1016.44 1016.06 1015.70 1015.55 1015.56 1015.67 1016.00 1016.58 1017.01 1017.22
1023.60 1023.43 1023.22 1023.03 1022.88 1022.53 1022.13 1021.89 1021.49 1021.12 1020.73 1020.50 1020.36 1020.36 1020.31 1020.28 1020.45 1020.13 1020.10 1020.45 1020.98 1020.78 1020.34 1019.27 1018.27 1017.61 1017.48 1017.14 1016.96 1016.92 1016.86 1017.16 1017.36 1017.64 1017.78 1017.21 1016.80 1016.35 1016.16 1015.98 1015.70 1015.93 1016.72 1017.79 1018.38 1018.44 1017.96
1023.69 1023.53 1023.40 1023.11 1022.90 1022.70 1022.22 1021.96 1021.54 1021.27 1020.82 1020.48 1020.27 1020.27 1020.28 1020.37 1020.31 1020.26 1020.44 1020.95 1021.21 1021.10 1020.37 1019.32 1018.63 1018.11 1017.78 1017.13 1017.03 1017.06 1017.20 1017.38 1017.21 1017.79 1018.30 1018.09 1017.28 1016.78 1016.45 1016.31 1016.26 1016.38 1017.01 1018.00 1018.58 1018.91 1018.09
1023.69 1023.45 1023.31 1023.21 1023.07 1022.78 1022.41 1022.00 1021.77 1021.32 1020.87 1020.52 1020.30 1020.45 1020.49 1020.18 1020.16 1020.54 1020.92 1021.48 1021.62 1020.92 1020.40 1019.94 1018.97 1018.64 1018.12 1017.44 1017.29 1017.32 1017.34 1017.61 1017.56 1017.58 1018.10 1017.98 1017.39 1016.83 1016.63 1016.61 1016.70 1016.52 1017.02 1017.45 1018.22 1018.82 1018.47
1023.70 1023.59 1023.21 1023.13 1022.98 1022.96 1022.49 1022.14 1021.72 1021.28 1020.84 1020.59 1020.74 1020.60 1020.68 1020.26 1020.27 1020.68 1021.20 1021.59 1021.15 1020.34 1020.02 1019.82 1019.79 1019.12 1018.81 1018.23 1017.92 1017.62 1017.48 1017.59 1017.61 1017.58 1017.78 1017.88 1017.91 1017.12 1016.84 1016.70 1016.67 1016.74 1017.02 1017.67 1018.41 1018.83 1018.45
1023.57 1023.59 1023.43 1023.19 1022.99 1022.83 1022.63 1022.21 1021.80 1021.24 1020.69 1020.43 1020.95 1020.97 1020.43 1020.31 1020.33 1020.71 1021.61 1021.27 1020.47 1019.94 1019.89 1019.79 1019.66 1019.48 1018.95 1018.61 1018.22 1017.96 1017.84 1017.66 1017.88 1017.80 1017.82 1017.92 1018.37 1017.84 1017.51 1017.08 1016.86 1017.25 1017.00 1017.53 1018.16 1018.38 1018.14
1023.53 1023.52 1023.56 1023.33 1023.13 1022.92 1022.59 1022.27 1021.88 1021.42 1020.71 1020.58 1021.14 1021.34 1020.71 1020.28 1020.85 1021.28 1021.23 1020.60 1020.26 1019.85 1019.67 1019.63 1019.59 1019.35 1019.05 1018.74 1018.46 1017.95 1017.85 1017.71 1017.79 1018.04 1018.23 1018.40 1018.52 1018.45 1017.57 1016.99 1016.77 1016.79 1017.01 1017.21 1017.99 1018.12 1017.97
1023.42 1023.38 1023.40 1023.39 1023.18 1023.00 1022.76 1022.42 1022.07 1021.73 1021.23 1021.28 1021.48 1021.38 1021.01 1020.90 1020.89 1021.10 1020.53 1020.15 1019.95 1019.92 1019.83 1019.69 1019.58 1019.30 1018.97 1019.00 1018.83 1018.21 1017.90 1017.69 1017.87 1018.10 1018.40 1018.76 1018.94 1018.87 1017.69 1017.62 1017.22 1017.01 1016.73 1016.90 1017.50 1017.74 1017.42
1023.19 1023.20 1023.20 1023.28 1023.16 1022.99 1022.70 1022.58 1022.20 1021.82 1021.70 1021.63 1021.88 1021.65 1021.26 1021.37 1021.08 1020.59 1020.21 1019.85 1019.54 1019.48 1019.54 1019.57 1019.53 1019.50 1019.26 1018.90 1018.53 1018.35 1018.03 1017.84 1018.10 1018.40 1018.66 1018.91 1019.35 1019.43 1018.96 1018.04 1017.51 1017.24 1016.92 1016.90 1017.12 1017.91 1017.11
1022.88 1022.94 1022.95 1023.03 1022.96 1022.84 1022.69 1022.48 1022.17 1021.84 1021.59 1021.79 1021.89 1021.76 1021.32 1021.36 1020.87 1020.52 1020.24 1019.88 1019.54 1019.37 1019.47 1019.44 1019.52 1019.30 1019.35 1019.23 1018.72 1018.50 1018.10 1018.05 1018.30 1018.60 1018.97 1019.27 1019.50 1019.26 1018.51 1017.95 1017.63 1017.10 1016.77 1016.76 1017.18 1016.25 1016.19
1022.45 1022.62 1022.68 1022.70 1022.68 1022.68 1022.67 1022.41 1022.20 1021.82 1021.50 1021.74 1022.13 1021.88 1021.61 1021.11 1020.50 1020.28 1020.06 1019.57 1019.16 1018.81 1018.95 1019.23 1019.43 1018.91 1019.08 1019.21 1018.62 1018.41 1018.38 1018.57 1018.53 1019.00 1019.24 1019.53 1019.40 1019.18 1018.56 1017.36 1017.05 1016.73 1015.95 1016.01 1016.02 1015.84 1015.48
1022.05 1022.21 1022.34 1022.41 1022.46 1022.47 1022.51 1022.39 1022.16 1022.01 1021.42 1021.94 1022.05 1021.95 1021.66 1021.07 1020.70 1020.49 1019.62 1018.86 1018.60 1018.44 1018.09 1018.08 1018.52 1018.83 1018.85 1018.25 1018.17 1018.12 1018.16 1018.29 1018.43 1018.89 1019.41 1019.74 1019.76 1019.57 1018.45 1017.37 1016.79 1016.00 1014.79 1014.93 1015.06 1014.76 1014.49
1021.73 1021.79 1021.92 1022.05 1022.08 1022.18 1022.17 1022.14 1022.09 1022.13 1022.08 1022.54 1022.36 1022.52 1022.36 1021.71 1021.02 1020.07 1019.04 1018.85 1018.45 1018.39 1018.26 1018.04 1018.36 1018.57 1018.10 1018.03 1018.11 1018.20 1018.29 1018.33 1018.62 1018.78 1019.09 1019.50 1019.91 1019.83 1018.91 1017.79 1016.38 1014.13 1013.64 1013.69 1013.90 1013.65 1013.71
1021.32 1021.28 1021.46 1021.66 1021.71 1021.84 1021.91 1021.87 1021.76 1022.02 1022.02 1022.36 1022.49 1022.57 1022.70 1021.81 1020.78 1019.90 1019.23 1018.74 1018.37 1018.24 1018.37 1018.12 1017.97 1017.94 1018.04 1018.48 1018.92 1018.87 1018.54 1018.53 1018.72 1019.00 1019.16 1019.50 1019.86 1020.03 1019.55 1018.43 1015.89 1013.58 1013.48 1013.54 1013.55 1013.35 1013.30
1020.83 1020.99 1021.12 1021.19 1021.15 1021.34 1021.66 1021.40 1021.39 1021.54 1021.76 1022.29 1022.50 1022.45 1022.70 1022.58 1020.42 1019.41 1019.05 1018.50 1018.40 1018.25 1018.62 1018.06 1018.16 1018.14 1018.40 1019.15 1019.75 1019.76 1019.41 1018.63 1018.86 1019.24 1019.52 1019.81 1019.97 1020.26 1019.89 1018.95 1016.48 1013.82 1013.28 1013.31 1013.52 1013.54 1013.34
1020.58 1020.65 1020.77 1020.83 1020.90 1020.96 1021.22 1021.22 1020.98 1021.02 1021.24 1021.74 1022.31 1022.24 1022.41 1022.72 1020.47 1019.75 1019.15 1018.45 1017.88 1017.99 1018.21 1018.22 1018.41 1018.80 1018.80 1019.64 1020.20 1019.89 1019.25 1018.34 1018.47 1018.66 1019.39 1019.92 1020.34 1020.27 1019.62 1018.64 1016.06 1013.79 1013.43 1013.49 1013.76 1013.90 1013.38
1020.58 1020.59 1020.72 1020.85 1021.05 1021.05 1020.96 1020.86 1020.81 1020.84 1020.73 1021.18 1021.50 1021.59 1021.81 1021.96 1020.64 1019.82 1019.18 1018.65 1018.06 1017.90 1018.01 1018.16 1018.66 1018.92 1019.47 1019.78 1019.90 1019.26 1018.79 1017.58 1017.43 1017.11 1017.37 1017.76 1018.66 1019.05 1018.87 1018.00 1015.84 1013.45 1013.83 1013.81 1013.09 1013.14 1013.37
1021.11 1021.04 1021.10 1021.17 1021.08 1021.04 1020.94 1020.82 1020.76 1020.49 1020.31 1020.59 1020.96 1020.63 1020.88 1021.10 1019.65 1019.13 1018.58 1017.80 1017.64 1017.68 1017.54 1017.58 1017.26 1017.32 1017.25 1018.34 1018.75 1018.55 1018.13 1017.50 1016.91 1016.82 1016.41 1016.34 1015.58 1015.94 1016.20 1014.59 1012.97 1012.86 1012.60 1012.61 1012.86 1013.00 1013.30
Thickness
5632 5633 5631 5631 5630 5630 5630 5629 5628 5626 5623 5620 5615 5610 5603 5595 5589 5581 5572 5564 5555 5545 5537 5532 5529 5527 5526 5524 5526 5538 5543 5547 5551 5555 5558 5563 5567 5576 5582 5593 5607 5615 5633 5649 5663 5671 5671
5629 5629 5629 5629 5628 5628 5628 5628 5627 5625 5622 5619 5614 5609 5603 5596 5589 5581 5572 5565 5556 5546 5539 5534 5529 5529 5527 5521 5536 5539 5542 5546 5549 5552 5555 5561 5567 5575 5577 5588 5599 5614 5622 5635 5648 5658 5664
5628 5627 5627 5627 5626 5627 5628 5628 5626 5624 5622 5618 5614 5609 5604 5598 5590 5583 5575 5566 5558 5549 5541 5536 5531 5527 5525 5526 5537 5539 5543 5545 5548 5550 5552 5559 5565 5569 5574 5581 5598 5607 5610 5620 5633 5646 5653
5628 5627 5627 5626 5626 5627 5627 5627 5626 5624 5620 5617 5615 5611 5606 5600 5593 5586 5578 5569 5561 5552 5544 5537 5533 5529 5527 5540 5540 5541 5544 5545 5549 5550 5552 5558 5564 5567 5569 5581 5590 5594 5596 5595 5627 5635 5649
5629 5628 5626 5627 5627 5629 5628 5627 5626 5622 5619 5617 5615 5612 5606 5601 5596 5588 5582 5573 5565 5556 5548 5541 5536 5531 5529 5542 5538 5541 5543 5541 5545 5548 5550 5556 5559 5559 5563 5566 5568 5572 5577 5594 5612 5629 5636
5628 5628 5627 5627 5627 5629 5630 5628 5626 5624 5620 5617 5614 5611 5606 5602 5598 5592 5587 5580 5571 5562 5555 5547 5541 5531 5537 5533 5538 5540 5544 5544 5542 5543 5544 5546 5541 5541 5544 5549 5550 5567 5579 5590 5601 5617 5628
5627 5628 5628 5627 5627 5628 5629 5628 5626 5626 5621 5618 5616 5612 5607 5603 5599 5594 5589 5582 5569 5563 5556 5547 5543 5537 5538 5541 5542 5540 5543 5541 5541 5538 5532 5538 5526 5529 5541 5548 5554 5558 5572 5575 5593 5614 5617
5627 5626 5628 5628 5625 5627 5627 5628 5627 5626 5623 5618 5615 5612 5608 5603 5600 5595 5588 5575 5565 5558 5548 5553 5549 5545 5545 5544 5535 5541 5544 5535 5534 5528 5536 5530 5526 5539 5546 5550 5552 5555 5564 5575 5590 5607 5609
5626 5625 5626 5627 5626 5627 5626 5627 5627 5626 5624 5620 5615 5612 5609 5603 5600 5594 5587 5577 5570 5562 5549 5554 5557 5551 5548 5546 5538 5538 5541 5536 5535 5533 5535 5531 5541 5549 5547 5549 5554 5560 5564 5575 5582 5598 5608
5625 5624 5624 5625 5625 5627 5626 5625 5626 5625 5623 5620 5616 5612 5610 5605 5598 5591 5584 5579 5573 5565 5539 5551 5557 5556 5554 5550 5539 5547 5544 5538 5533 5533 5537 5535 5543 5546 5549 5550 5552 5556 5569 5576 5583 5581 5575
5620 5621 5623 5623 5623 5625 5625 5624 5625 5625 5625 5623 5617 5613 5609 5607 5597 5591 5586 5582 5576 5565 5509 5562 5561 5568 5560 5548 5546 5545 5547 5541 5532 5532 5531 5532 5539 5540 5546 5550 5554 5554 5565 5574 5584 5578 5579
5618 5619 5619 5620 5622 5623 5625 5624 5624 5624 5624 5623 5619 5614 5610 5604 5599 5594 5590 5585 5577 5543 5512 5556 5567 5560 5555 5554 5550 5549 5544 5543 5541 5535 5536 5536 5544 5543 5546 5550 5555 5560 5565 5561 5557 5555 5545
5611 5614 5616 5617 5617 5619 5621 5621 5622 5623 5623 5621 5618 5613 5609 5604 5598 5595 5591 5581 5550 5536 5563 5561 5559 5561 5555 5555 5553 5549 5546 5538 5533 5520 5518 5536 5542 5547 5549 5549 5555 5555 5542 5512 5529 5519 5545
5605 5607 5609 5612 5613 5614 5617 5617 5619 5619 5621 5620 5619 5615 5611 5604 5600 5596 5589 5576 5558 5568 5563 5570 5565 5559 5557 5564 5558 5553 5547 5539 5544 5537 5513 5514 5517 5542 5546 5548 5547 5551 5544 5518 5540 5532 5550
5599 5602 5605 5606 5608 5609 5612 5614 5614 5616 5618 5618 5617 5613 5608 5607 5602 5595 5582 5552 5563 5570 5568 5562 5565 5562 5558 5564 5560 5554 5549 5543 5546 5546 5532 5529 5534 5543 5545 5545 5547 5551 5541 5548 5540 5538 5543
5594 5596 5600 5601 5603 5603 5607 5609 5611 5613 5615 5614 5610 5609 5605 5605 5601 5593 5578 5577 5573 5577 5573 5568 5558 5563 5554 5553 5553 5553 5552 5550 5548 5548 5544 5543 5529 5543 5545 5547 5547 5548 5547 5537 5516 5544 5548
5588 5589 5592 5594 5598 5599 5601 5603 5606 5609 5612 5612 5606 5606 5607 5603 5600 5587 5574 5572 5581 5582 5576 5569 5563 5557 5559 5555 5552 5552 5553 5553 5546 5546 5546 5544 5534 5537 5541 5538 5540 5537 5541 5542 5536 5534 5544
5582 5583 5584 5587 5590 5592 5595 5597 5600 5602 5607 5607 5600 5602 5601 5602 5594 5566 5582 5585 5582 5580 5576 5572 5568 5563 5560 5558 5554 5558 5554 5552 5549 5545 5542 5541 5532 5523 5540 5546 5545 5544 5545 5542 5529 5549 5535
5574 5576 5578 5580 5582 5584 5586 5589 5592 5594 5598 5596 5595 5593 5595 5593 5590 5584 5586 5586 5581 5577 5573 5572 5569 5567 5565 5558 5551 5556 5556 5555 5550 5547 5543 5538 5529 5507 5541 5541 5544 5543 5546 5549 5539 5528 5542
5567 5569 5571 5572 5574 5576 5579 5580 5583 5585 5586 5587 5585 5588 5588 5581 5579 5590 5590 5586 5585 5577 5574 5571 5567 5564 5562 5560 5557 5555 5557 5556 5548 5545 5541 5535 5523 5526 5520 5543 5543 5544 5546 5544 5544 5506 5545
5561 5563 5564 5564 5566 5568 5570 5572 5576 5577 5578 5578 5577 5583 5583 5580 5584 5583 5583 5580 5581 5579 5570 5567 5565 5560 5559 5555 5558 5553 5558 5557 5548 5544 5538 5533 5525 5517 5525 5528 5530 5537 5543 5545 5524 5553 5554
5553 5554 5556 5557 5558 5560 5561 5563 5566 5569 5571 5569 5569 5573 5568 5571 5580 5579 5574 5576 5576 5579 5572 5567 5559 5567 5553 5549 5555 5556 5554 5548 5551 5539 5537 5526 5530 5530 5525 5541 5534 5534 5534 5538 5540 5550 5546
5547 5547 5547 5549 5550 5550 5551 5553 5555 5557 5562 5556 5554 5556 5559 5563 5568 5567 5571 5574 5576 5575 5580 5574 5562 5560 5553 5554 5553 5551 5549 5548 5546 5544 5529 5523 5519 5525 5534 5540 5537 5546 5550 5547 5547 5548 5561
5537 5539 5539 5541 5542 5541 5542 5543 5545 5545 5546 5543 5544 5539 5543 5553 5553 5562 5574 5568 5571 5567 5568 5571 5560 5554 5558 5554 5551 5546 5536 5532 5528 5528 5527 5525 5520 5516 5523 5532 5538 5564 5565 5563 5556 5563 5557
5528 5530 5530 5531 5532 5532 5532 5533 5535 5534 5534 5533 5530 5529 5525 5532 5543 5554 5558 5559 5562 5560 5556 5559 5559 5553 5546 5544 5533 5533 5537 5544 5534 5523 5522 5514 5513 5508 5516 5515 5548 5572 5564 5562 5563 5565 5561
5518 5519 5520 5520 5523 5522 5520 5523 5523 5524 5523 5520 5517 5517 5510 5510 5537 5550 5550 5554 5547 5542 5540 5552 5545 5539 5538 5524 5521 5520 5526 5535 5535 5519 5509 5505 5500 5501 5496 5510 5535 5565 5561 5557 5555 5548 5553
5508 5510 5510 5511 5511 5511 5510 5511 5513 5513 5512 5510 5505 5504 5498 5491 5518 5527 5527 5535 5542 5538 5530 5535 5532 5525 5527 5507 5503 5499 5505 5526 5522 5523 5499 5490 5482 5486 5481 5489 5519 5545 5551 5547 5547 5553 5550
5498 5499 5498 5497 5496 5497 5498 5499 5499 5499 5500 5498 5496 5494 5489 5478 5495 5511 5516 5520 5524 5523 5525 5520 5514 5511 5497 5500 5494 5501 5491 5511 5518 5525 5511 5510 5484 5475 5470 5480 5498 5539 5537 5539 5543 5536 5540
5480 5481 5481 5481 5481 5482 5482 5484 5483 5486 5486 5484 5485 5484 5479 5476 5491 5500 5504 5513 5512 5509 5509 5502 5512 5508 5508 5493 5486 5486 5496 5490 5506 5508 5511 5515 5527 5512 5506 5517 5538 5526 5536 5534 5526 5528 5527